• en Suisse
  • Liste des pays
  • À 7 jours
  • Température de l'eau
  • Carte satellitaire
  • Carte météo
  • Widgets météo
  • user-avatar
    Se connecter

    Météo par heure à Ísafjörður

    Ce jour, 16 Octobre, Mardi

    Heure Température Précipitation Vent Pression Humidité
    00:00 0°C° 0.2 mm 5 m/s 718 mmHg 84%
    01:00 0°C° 0.2 mm 5 m/s 717 mmHg 84%
    02:00 -1°C° 0.3 mm 6 m/s 716 mmHg 85%
    03:00 -1°C° 0.3 mm 6 m/s 715 mmHg 85%
    04:00 0°C° 0.3 mm 7 m/s 715 mmHg 86%
    05:00 0°C° 0.7 mm 8 m/s 714 mmHg 88%
    06:00 0°C° 0.7 mm 8 m/s 713 mmHg 90%
    07:00 0°C° 0.7 mm 9 m/s 712 mmHg 93%
    08:00 0°C° 0.9 mm 8 m/s 711 mmHg 94%
    09:00 0°C° 0.9 mm 8 m/s 711 mmHg 95%
    10:00 0°C° 0.9 mm 8 m/s 710 mmHg 96%
    11:00 0°C° 0.7 mm 7 m/s 710 mmHg 96%
    12:00 +1°C° 0.7 mm 6 m/s 709 mmHg 96%
    13:00 +1°C° 0.7 mm 5 m/s 709 mmHg 97%
    14:00 +1°C° 0.5 mm 5 m/s 709 mmHg 97%
    15:00 +1°C° 0.5 mm 4 m/s 709 mmHg 97%
    16:00 +1°C° 0.5 mm 4 m/s 709 mmHg 96%
    17:00 +1°C° 0.3 mm 4 m/s 709 mmHg 97%
    18:00 +1°C° 0.3 mm 5 m/s 710 mmHg 97%
    19:00 +1°C° 0.3 mm 5 m/s 710 mmHg 97%
    20:00 +1°C° 0.5 mm 6 m/s 711 mmHg 97%
    21:00 +1°C° 0.5 mm 6 m/s 711 mmHg 97%
    22:00 0°C° 0.5 mm 7 m/s 712 mmHg 97%
    23:00 0°C° 0.8 mm 8 m/s 713 mmHg 97%

    Demain, 17 Octobre, Mercredi

    Heure Température Précipitation Vent Pression Humidité
    00:00 -1°C° 0.8 mm 8 m/s 713 mmHg 96%
    01:00 -1°C° 0.8 mm 9 m/s 714 mmHg 96%
    02:00 -3°C° 0.7 mm 10 m/s 715 mmHg 95%
    03:00 -3°C° 0.7 mm 11 m/s 716 mmHg 94%
    04:00 -5°C° 0.7 mm 12 m/s 717 mmHg 93%
    05:00 -4°C° 0.5 mm 11 m/s 719 mmHg 92%
    06:00 -4°C° 0.5 mm 11 m/s 720 mmHg 91%
    07:00 -4°C° 0.5 mm 10 m/s 722 mmHg 90%
    08:00 -3°C° 0.3 mm 9 m/s 723 mmHg 90%
    09:00 -2°C° 0.3 mm 8 m/s 724 mmHg 89%
    10:00 -2°C° 0.3 mm 7 m/s 725 mmHg 89%
    11:00 -1°C° 0.1 mm 7 m/s 726 mmHg 86%
    12:00 -1°C° 0.1 mm 7 m/s 727 mmHg 83%
    13:00 -1°C° 0.1 mm 8 m/s 728 mmHg 80%
    14:00 -2°C° 0 mm 7 m/s 729 mmHg 78%
    15:00 -2°C° 0 mm 7 m/s 729 mmHg 76%
    16:00 -3°C° 0 mm 7 m/s 730 mmHg 74%
    17:00 -3°C° 0 mm 6 m/s 730 mmHg 75%
    18:00 -3°C° 0 mm 6 m/s 731 mmHg 76%
    19:00 -3°C° 0 mm 6 m/s 731 mmHg 77%
    20:00 -3°C° 0 mm 6 m/s 731 mmHg 79%
    21:00 -2°C° 0 mm 5 m/s 731 mmHg 81%
    22:00 -1°C° 0 mm 5 m/s 731 mmHg 83%
    23:00 -1°C° 0.2 mm 5 m/s 730 mmHg 85%

    Après-demain, 18 Octobre, Jeudi

    Heure Température Précipitation Vent Pression Humidité
    00:00 -1°C° 0.2 mm 5 m/s 730 mmHg 87%
    01:00 -1°C° 0.2 mm 5 m/s 729 mmHg 89%
    02:00 -1°C° 0.7 mm 5 m/s 728 mmHg 89%
    03:00 -1°C° 0.7 mm 6 m/s 727 mmHg 90%
    04:00 -1°C° 0.7 mm 7 m/s 726 mmHg 91%
    05:00 -1°C° 0.5 mm 7 m/s 725 mmHg 92%
    06:00 -1°C° 0.5 mm 7 m/s 725 mmHg 93%
    07:00 0°C° 0.5 mm 7 m/s 724 mmHg 95%
    08:00 +1°C° 0.3 mm 6 m/s 723 mmHg 95%
    09:00 +1°C° 0.3 mm 6 m/s 723 mmHg 96%
    10:00 +2°C° 0.3 mm 6 m/s 723 mmHg 97%
    11:00 +2°C° 0.1 mm 5 m/s 722 mmHg 97%
    12:00 +2°C° 0.1 mm 5 m/s 721 mmHg 97%
    13:00 +3°C° 0.1 mm 4 m/s 721 mmHg 97%
    14:00 +3°C° 0.1 mm 4 m/s 720 mmHg 97%
    15:00 +3°C° 0.1 mm 3 m/s 720 mmHg 97%
    16:00 +3°C° 0.1 mm 3 m/s 720 mmHg 97%
    17:00 +2°C° 0.1 mm 3 m/s 719 mmHg 97%
    18:00 +2°C° 0.1 mm 3 m/s 719 mmHg 97%
    19:00 +2°C° 0.1 mm 3 m/s 719 mmHg 97%
    20:00 +2°C° 0.2 mm 3 m/s 719 mmHg 96%
    21:00 +1°C° 0.2 mm 4 m/s 719 mmHg 96%
    22:00 +1°C° 0.2 mm 4 m/s 719 mmHg 95%
    23:00 +2°C° 0 mm 3 m/s 718 mmHg 95%

    19 Octobre, Vendredi

    Heure Température Précipitation Vent Pression Humidité
    00:00 +1°C° 0 mm 3 m/s 718 mmHg 94%
    01:00 +2°C° 0 mm 2 m/s 717 mmHg 94%
    02:00 +2°C° 0.2 mm 2 m/s 718 mmHg 94%
    03:00 +2°C° 0.2 mm 2 m/s 718 mmHg 94%
    04:00 +3°C° 0.2 mm 2 m/s 718 mmHg 94%
    05:00 +3°C° 0.2 mm 2 m/s 719 mmHg 94%
    06:00 +2°C° 0.2 mm 3 m/s 719 mmHg 94%
    07:00 +1°C° 0.2 mm 4 m/s 720 mmHg 95%
    08:00 +1°C° 0.1 mm 4 m/s 721 mmHg 95%
    09:00 +1°C° 0.1 mm 4 m/s 722 mmHg 94%
    10:00 +1°C° 0.1 mm 5 m/s 722 mmHg 94%
    11:00 +2°C° 0.1 mm 5 m/s 723 mmHg 94%
    12:00 +2°C° 0.1 mm 5 m/s 723 mmHg 94%
    13:00 +2°C° 0.1 mm 5 m/s 724 mmHg 94%
    14:00 +2°C° 0.1 mm 5 m/s 724 mmHg 94%
    15:00 +1°C° 0.1 mm 6 m/s 724 mmHg 93%
    16:00 +1°C° 0.1 mm 6 m/s 724 mmHg 93%
    17:00 +1°C° 0.1 mm 6 m/s 724 mmHg 91%
    18:00 -1°C° 0.1 mm 6 m/s 723 mmHg 89%
    19:00 0°C° 0.1 mm 5 m/s 723 mmHg 88%
    20:00 0°C° 0.5 mm 5 m/s 721 mmHg 88%
    21:00 0°C° 0.5 mm 5 m/s 719 mmHg 89%
    22:00 0°C° 0.5 mm 5 m/s 718 mmHg 90%
    23:00 -1°C° 1.2 mm 7 m/s 717 mmHg 91%

    20 Octobre, Samedi

    Heure Température Précipitation Vent Pression Humidité
    00:00 0°C° 1.2 mm 9 m/s 715 mmHg 92%
    01:00 0°C° 1.2 mm 10 m/s 714 mmHg 93%
    02:00 0°C° 0.5 mm 9 m/s 713 mmHg 93%
    03:00 0°C° 0.5 mm 8 m/s 712 mmHg 93%
    04:00 0°C° 0.5 mm 7 m/s 711 mmHg 94%
    05:00 +1°C° 0.3 mm 6 m/s 710 mmHg 94%
    06:00 +1°C° 0.3 mm 5 m/s 710 mmHg 94%
    07:00 +2°C° 0.3 mm 3 m/s 710 mmHg 94%
    08:00 +1°C° 0.1 mm 4 m/s 711 mmHg 94%
    09:00 +1°C° 0.1 mm 5 m/s 712 mmHg 94%
    10:00 +1°C° 0.1 mm 6 m/s 714 mmHg 94%
    11:00 0°C° 0.2 mm 7 m/s 715 mmHg 93%
    12:00 0°C° 0.2 mm 8 m/s 716 mmHg 91%
    13:00 0°C° 0.2 mm 9 m/s 717 mmHg 90%
    14:00 -1°C° 0.4 mm 9 m/s 718 mmHg 90%
    15:00 -1°C° 0.4 mm 8 m/s 719 mmHg 90%
    16:00 -1°C° 0.4 mm 7 m/s 720 mmHg 90%
    17:00 -1°C° 0.1 mm 6 m/s 721 mmHg 90%
    18:00 0°C° 0.1 mm 5 m/s 722 mmHg 89%
    19:00 -1°C° 0.1 mm 4 m/s 722 mmHg 89%
    20:00 0°C° 0.2 mm 5 m/s 722 mmHg 87%
    21:00 -1°C° 0.2 mm 7 m/s 722 mmHg 86%
    22:00 -1°C° 0.2 mm 9 m/s 723 mmHg 84%
    23:00 -1°C° 0.1 mm 9 m/s 722 mmHg 81%

    21 Octobre, Dimanche

    Heure Température Précipitation Vent Pression Humidité
    00:00 -3°C° 0.1 mm 10 m/s 722 mmHg 79%
    01:00 -3°C° 0.1 mm 11 m/s 721 mmHg 76%
    02:00 -3°C° 0.1 mm 9 m/s 721 mmHg 76%
    03:00 -4°C° 0.1 mm 8 m/s 721 mmHg 75%
    04:00 -3°C° 0.1 mm 7 m/s 721 mmHg 75%
    05:00 -3°C° 0 mm 7 m/s 721 mmHg 76%
    06:00 -3°C° 0 mm 7 m/s 721 mmHg 76%
    07:00 -3°C° 0 mm 6 m/s 722 mmHg 77%
    08:00 -3°C° 0.1 mm 7 m/s 723 mmHg 78%
    09:00 -2°C° 0.1 mm 7 m/s 723 mmHg 80%
    10:00 -2°C° 0.1 mm 8 m/s 724 mmHg 82%
    11:00 -2°C° 0.1 mm 8 m/s 725 mmHg 82%
    12:00 -2°C° 0.1 mm 7 m/s 726 mmHg 83%
    13:00 -2°C° 0.1 mm 7 m/s 726 mmHg 83%
    14:00 -2°C° 0.1 mm 7 m/s 727 mmHg 82%
    15:00 -2°C° 0.1 mm 8 m/s 728 mmHg 80%
    16:00 -2°C° 0.1 mm 8 m/s 729 mmHg 79%
    17:00 -2°C° 0 mm 8 m/s 729 mmHg 79%
    18:00 -2°C° 0 mm 8 m/s 730 mmHg 79%
    19:00 -3°C° 0 mm 9 m/s 731 mmHg 79%
    20:00 -3°C° 0 mm 9 m/s 732 mmHg 77%
    21:00 -3°C° 0 mm 10 m/s 732 mmHg 75%
    22:00 -3°C° 0 mm 10 m/s 733 mmHg 73%
    23:00 -3°C° 0 mm 10 m/s 733 mmHg 73%
    Voir plus